TimePDT,TemperatureF,Dew PointF,Humidity,Sea Level PressureIn,VisibilityMPH,Wind Direction,Wind SpeedMPH,Gust SpeedMPH,PrecipitationIn,Events,Conditions,WindDirDegrees,DateUTC
12:15 AM,57.2,53.6,88,30.36,10.0,Calm,Calm,-,N/A,,Clear,0,2013-07-26 07:15:00
12:35 AM,53.6,51.8,94,30.36,10.0,SE,3.5,-,N/A,,Clear,130,2013-07-26 07:35:00
12:55 AM,55.4,53.6,94,30.36,10.0,Calm,Calm,-,N/A,,Clear,0,2013-07-26 07:55:00
1:15 AM,55.4,53.6,94,30.36,10.0,Calm,Calm,-,N/A,,Clear,0,2013-07-26 08:15:00
1:35 AM,53.6,51.8,94,30.36,10.0,Calm,Calm,-,N/A,,Clear,0,2013-07-26 08:35:00
1:55 AM,53.6,53.6,100,30.35,10.0,Calm,Calm,-,N/A,,Scattered Clouds,0,2013-07-26 08:55:00
2:15 AM,53.6,51.8,94,30.35,7.0,Calm,Calm,-,N/A,,Partly Cloudy,0,2013-07-26 09:15:00
2:35 AM,53.6,51.8,94,30.35,10.0,Calm,Calm,-,N/A,,Mostly Cloudy,0,2013-07-26 09:35:00
2:55 AM,53.6,51.8,94,30.35,10.0,Calm,Calm,-,N/A,,Overcast,0,2013-07-26 09:55:00
3:15 AM,53.6,51.8,94,30.35,10.0,Calm,Calm,-,N/A,,Overcast,0,2013-07-26 10:15:00
3:35 AM,50.0,50.0,100,30.34,7.0,Calm,Calm,-,N/A,,Mostly Cloudy,0,2013-07-26 10:35:00
3:55 AM,53.6,51.8,94,30.34,10.0,Calm,Calm,-,N/A,,Mostly Cloudy,0,2013-07-26 10:55:00
4:15 AM,50.0,50.0,100,30.34,1.0,SSE,3.5,-,N/A,,Mostly Cloudy,150,2013-07-26 11:15:00
4:35 AM,50.0,50.0,100,30.34,10.0,Calm,Calm,-,N/A,,Clear,0,2013-07-26 11:35:00
4:55 AM,50.0,50.0,100,30.34,0.8,SW,3.5,-,N/A,,Mist,230,2013-07-26 11:55:00
5:15 AM,51.8,51.8,100,30.35,9.0,Calm,Calm,-,N/A,,Clear,0,2013-07-26 12:15:00
5:35 AM,48.2,48.2,100,30.35,0.2,Calm,Calm,-,N/A,Fog,Fog,0,2013-07-26 12:35:00
5:55 AM,48.2,48.2,100,30.36,0.5,Calm,Calm,-,N/A,Fog,Fog,0,2013-07-26 12:55:00
6:15 AM,50.0,48.2,94,30.36,4.0,SE,3.5,-,N/A,,Clear,130,2013-07-26 13:15:00
6:35 AM,48.2,48.2,100,30.37,10.0,Calm,Calm,-,N/A,,Clear,0,2013-07-26 13:35:00
6:55 AM,50.0,48.2,94,30.37,10.0,Calm,Calm,-,N/A,,Scattered Clouds,0,2013-07-26 13:55:00
7:55 AM,57.2,53.6,88,30.38,10.0,Calm,Calm,-,N/A,,Partly Cloudy,0,2013-07-26 14:55:00
8:50 AM,62.6,53.6,72,30.38,10.0,Calm,Calm,-,N/A,,Partly Cloudy,0,2013-07-26 15:50:00
9:50 AM,68.0,55.4,64,30.37,10.0,Calm,Calm,-,N/A,,Partly Cloudy,0,2013-07-26 16:50:00
11:45 AM,80.6,50.0,34,30.35,10.0,NW,3.5,-,N/A,,Mostly Cloudy,310,2013-07-26 18:45:00
11:55 AM,80.6,50.0,34,30.35,10.0,NW,3.5,-,N/A,,Mostly Cloudy,310,2013-07-26 18:55:00
12:50 PM,78.8,51.8,39,30.35,10.0,South,4.6,-,N/A,,Mostly Cloudy,190,2013-07-26 19:50:00
1:50 PM,80.6,50.0,34,30.34,10.0,SSE,5.8,-,N/A,,Mostly Cloudy,160,2013-07-26 20:50:00
2:55 PM,80.6,48.2,32,30.32,10.0,West,5.8,-,N/A,,Mostly Cloudy,280,2013-07-26 21:55:00
3:50 PM,84.2,46.4,27,30.32,10.0,West,13.8,-,N/A,,Mostly Cloudy,260,2013-07-26 22:50:00
4:50 PM,82.4,46.4,28,30.30,10.0,WSW,13.8,18.4,N/A,,Scattered Clouds,250,2013-07-26 23:50:00
5:45 PM,82.4,44.6,26,30.30,10.0,West,12.7,19.6,N/A,,Partly Cloudy,270,2013-07-27 00:45:00
5:55 PM,82.4,44.6,26,30.30,10.0,West,16.1,-,N/A,,Clear,270,2013-07-27 00:55:00
6:15 PM,80.6,46.4,30,30.30,10.0,WSW,15.0,18.4,N/A,,Clear,240,2013-07-27 01:15:00
6:35 PM,78.8,46.4,32,30.30,10.0,West,13.8,20.7,N/A,,Clear,260,2013-07-27 01:35:00
6:55 PM,78.8,44.6,30,30.30,10.0,WSW,12.7,19.6,N/A,,Clear,240,2013-07-27 01:55:00
7:15 PM,77.0,44.6,32,30.31,10.0,WSW,8.1,17.3,N/A,,Clear,240,2013-07-27 02:15:00
7:35 PM,75.2,46.4,36,30.31,10.0,WSW,8.1,-,N/A,,Clear,240,2013-07-27 02:35:00
7:55 PM,75.2,46.4,36,30.32,10.0,WSW,8.1,-,N/A,,Clear,250,2013-07-27 02:55:00
8:15 PM,71.6,46.4,41,30.32,10.0,SW,6.9,-,N/A,,Clear,230,2013-07-27 03:15:00
8:35 PM,68.0,46.4,46,30.33,10.0,West,4.6,-,N/A,,Clear,260,2013-07-27 03:35:00
8:55 PM,69.8,46.4,43,30.34,10.0,West,4.6,-,N/A,,Clear,260,2013-07-27 03:55:00
9:15 PM,64.4,46.4,52,30.35,10.0,Calm,Calm,-,N/A,,Clear,0,2013-07-27 04:15:00
9:35 PM,62.6,46.4,55,30.35,10.0,South,4.6,-,N/A,,Clear,170,2013-07-27 04:35:00
9:55 PM,59.0,46.4,63,30.36,10.0,SSE,5.8,-,N/A,,Clear,150,2013-07-27 04:55:00
10:15 PM,57.2,44.6,63,30.36,10.0,ESE,4.6,-,N/A,,Clear,110,2013-07-27 05:15:00
10:35 PM,57.2,46.4,67,30.36,10.0,South,4.6,-,N/A,,Clear,180,2013-07-27 05:35:00
10:55 PM,57.2,46.4,67,30.36,10.0,South,4.6,-,N/A,,Clear,180,2013-07-27 05:55:00
11:15 PM,55.4,44.6,67,30.36,10.0,Calm,Calm,-,N/A,,Clear,0,2013-07-27 06:15:00
11:35 PM,53.6,46.4,77,30.35,10.0,WSW,3.5,-,N/A,,Clear,240,2013-07-27 06:35:00
11:55 PM,55.4,46.4,72,30.35,10.0,Calm,Calm,-,N/A,,Clear,0,2013-07-27 06:55:00